sat.trackr.live / text

‹ back to catalog

STARLINK-36128

NORAD 66873 · 2025-281AB

PAYLOAD ACTIVE UNKNOWN

§ Identity

Operator
Country
US
Launch date
2025-12-02
Launch site
AFETR
Launch vehicle
Mass (kg)
RCS (m²)

Purposes: comms

External: N2YO · Heavens-Above · Gunter

§ Orbital elements

Epoch: 2026-09-20T04:43:03.379296Z

Period
94.27 min
Inclination
43.0021°
Eccentricity
0.0002551
Mean motion
15.27590959 rev/d
Perigee alt
481.3 km
Apogee alt
484.8 km
Semi-major
6,861.2 km
B*
3.1744e-4
RAAN
324.9258°
Arg perigee
283.3256°
Mean anomaly
76.7312°
Rev number
4,587

§ Raw data

STARLINK-361281 66873U 25281AB  26263.19656689  .00008486  00000+0  31744-3 0  99942 66873  43.0021 324.9258 0002551 283.3256  76.7312 15.27590959 45879

JSON: /api/v1/satellites/66873 · /tle

For live sub-satellite position, see the globe view (requires WebGL).

§ Visibility from observer

Set your observer location to see the next 7 days of passes ≥ 10°. The values pass through the URL so the page stays shareable.

No JS? Fill the form by hand. The geolocation button needs JavaScript.